• In Moldova, Republic
  • List of Countries
  • For 7 days
  • Water Temperature
  • Satellite Maps
  • Weather Map
  • Weather Widgets
  • user-avatar
    Login

    Hourly Weather Korçe

    Today, 24 June, Saturday

    Time Temperature Precipitation Wind Pressure Humidity
    00:00 +14°C° 0 mm 1 mps 668 mmHg 77%
    01:00 +13°C° 0 mm 1 mps 668 mmHg 77%
    02:00 +13°C° 0 mm 1 mps 668 mmHg 78%
    03:00 +13°C° 0 mm 1 mps 667 mmHg 78%
    04:00 +13°C° 0 mm 1 mps 667 mmHg 79%
    05:00 +16°C° 0 mm 1 mps 668 mmHg 70%
    06:00 +20°C° 0 mm 1 mps 669 mmHg 61%
    07:00 +23°C° 0 mm 1 mps 670 mmHg 52%
    08:00 +25°C° 0 mm 1 mps 671 mmHg 46%
    09:00 +27°C° 0 mm 1 mps 671 mmHg 41%
    10:00 +29°C° 0 mm 1 mps 672 mmHg 36%
    11:00 +29°C° 0 mm 1 mps 672 mmHg 34%
    12:00 +30°C° 0 mm 1 mps 671 mmHg 33%
    13:00 +31°C° 0 mm 2 mps 671 mmHg 31%
    14:00 +30°C° 0.2 mm 2 mps 671 mmHg 35%
    15:00 +29°C° 0.2 mm 2 mps 671 mmHg 38%
    16:00 +28°C° 0.2 mm 2 mps 670 mmHg 42%
    17:00 +26°C° 0.2 mm 2 mps 670 mmHg 51%
    18:00 +23°C° 0.2 mm 1 mps 669 mmHg 59%
    19:00 +20°C° 0.2 mm 1 mps 668 mmHg 68%
    20:00 +19°C° 0 mm 1 mps 668 mmHg 71%
    21:00 +18°C° 0 mm 1 mps 668 mmHg 75%
    22:00 +18°C° 0 mm 1 mps 668 mmHg 78%
    23:00 +16°C° 0.1 mm 1 mps 668 mmHg 78%

    Tomorrow, 25 June, Sunday

    Time Temperature Precipitation Wind Pressure Humidity
    00:00 +16°C° 0.1 mm 1 mps 668 mmHg 79%
    01:00 +16°C° 0.1 mm 1 mps 668 mmHg 79%
    02:00 +15°C° 0.1 mm 1 mps 668 mmHg 80%
    03:00 +15°C° 0.1 mm 1 mps 667 mmHg 81%
    04:00 +15°C° 0.1 mm 1 mps 667 mmHg 82%
    05:00 +19°C° 0 mm 1 mps 668 mmHg 74%
    06:00 +21°C° 0 mm 1 mps 669 mmHg 65%
    07:00 +24°C° 0 mm 1 mps 670 mmHg 57%
    08:00 +26°C° 0.2 mm 1 mps 670 mmHg 51%
    09:00 +28°C° 0.2 mm 1 mps 670 mmHg 45%
    10:00 +29°C° 0.2 mm 1 mps 671 mmHg 39%
    11:00 +30°C° 1 mm 1 mps 670 mmHg 40%
    12:00 +30°C° 1 mm 1 mps 670 mmHg 40%
    13:00 +30°C° 1 mm 1 mps 670 mmHg 41%
    14:00 +29°C° 0.9 mm 1 mps 669 mmHg 44%
    15:00 +28°C° 0.9 mm 1 mps 669 mmHg 48%
    16:00 +28°C° 0.9 mm 1 mps 669 mmHg 52%
    17:00 +25°C° 0.3 mm 1 mps 668 mmHg 59%
    18:00 +23°C° 0.3 mm 1 mps 668 mmHg 66%
    19:00 +21°C° 0.3 mm 1 mps 667 mmHg 73%
    20:00 +20°C° 0.4 mm 1 mps 667 mmHg 75%
    21:00 +19°C° 0.4 mm 1 mps 667 mmHg 77%
    22:00 +16°C° 0.4 mm 0 mps 667 mmHg 80%
    23:00 +15°C° 0.3 mm 0 mps 667 mmHg 81%

    Day after tomorrow, 26 June, Monday

    Time Temperature Precipitation Wind Pressure Humidity
    00:00 +15°C° 0.3 mm 0 mps 666 mmHg 82%
    01:00 +14°C° 0.3 mm 0 mps 666 mmHg 84%
    02:00 +14°C° 0.2 mm 0 mps 666 mmHg 84%
    03:00 +13°C° 0.2 mm 0 mps 665 mmHg 85%
    04:00 +13°C° 0.2 mm 0 mps 665 mmHg 85%
    05:00 +16°C° 0 mm 0 mps 666 mmHg 76%
    06:00 +19°C° 0 mm 0 mps 667 mmHg 67%
    07:00 +22°C° 0 mm 0 mps 668 mmHg 58%
    08:00 +23°C° 0.2 mm 0 mps 668 mmHg 52%
    09:00 +27°C° 0.2 mm 1 mps 669 mmHg 45%
    10:00 +29°C° 0.2 mm 1 mps 669 mmHg 39%
    11:00 +29°C° 0.3 mm 1 mps 669 mmHg 37%
    12:00 +30°C° 0.3 mm 2 mps 669 mmHg 36%
    13:00 +30°C° 0.3 mm 2 mps 669 mmHg 34%
    14:00 +29°C° 0.3 mm 2 mps 669 mmHg 37%
    15:00 +29°C° 0.3 mm 2 mps 669 mmHg 39%
    16:00 +28°C° 0.3 mm 2 mps 668 mmHg 42%
    17:00 +26°C° 0.3 mm 2 mps 668 mmHg 51%
    18:00 +23°C° 0.3 mm 1 mps 667 mmHg 60%
    19:00 +20°C° 0.3 mm 1 mps 667 mmHg 69%
    20:00 +19°C° 0 mm 1 mps 667 mmHg 73%
    21:00 +18°C° 0 mm 1 mps 667 mmHg 76%
    22:00 +15°C° 0 mm 0 mps 667 mmHg 80%
    23:00 +15°C° 0.2 mm 0 mps 667 mmHg 81%

    27 June, Tuesday

    Time Temperature Precipitation Wind Pressure Humidity
    00:00 +14°C° 0.2 mm 0 mps 666 mmHg 81%
    01:00 +14°C° 0.2 mm 0 mps 666 mmHg 82%
    02:00 +14°C° 0.2 mm 0 mps 666 mmHg 82%
    03:00 +14°C° 0.2 mm 0 mps 666 mmHg 83%
    04:00 +14°C° 0.2 mm 1 mps 666 mmHg 84%
    05:00 +18°C° 0 mm 1 mps 667 mmHg 76%
    06:00 +21°C° 0 mm 1 mps 668 mmHg 68%
    07:00 +22°C° 0 mm 0 mps 669 mmHg 59%
    08:00 +26°C° 0.2 mm 1 mps 670 mmHg 54%
    09:00 +27°C° 0.2 mm 1 mps 670 mmHg 48%
    10:00 +29°C° 0.2 mm 1 mps 670 mmHg 42%
    11:00 +29°C° 0.5 mm 1 mps 670 mmHg 42%
    12:00 +30°C° 0.5 mm 1 mps 670 mmHg 41%
    13:00 +30°C° 0.5 mm 2 mps 670 mmHg 40%
    14:00 +29°C° 0.5 mm 2 mps 670 mmHg 41%
    15:00 +29°C° 0.5 mm 2 mps 669 mmHg 42%
    16:00 +28°C° 0.5 mm 2 mps 669 mmHg 43%
    17:00 +26°C° 0.2 mm 1 mps 669 mmHg 52%
    18:00 +23°C° 0.2 mm 1 mps 668 mmHg 60%
    19:00 +21°C° 0.2 mm 1 mps 667 mmHg 68%
    20:00 +19°C° 0 mm 1 mps 667 mmHg 72%
    21:00 +18°C° 0 mm 1 mps 667 mmHg 76%
    22:00 +15°C° 0 mm 0 mps 667 mmHg 80%
    23:00 +15°C° 0 mm 0 mps 667 mmHg 81%

    28 June, Wednesday

    Time Temperature Precipitation Wind Pressure Humidity
    00:00 +14°C° 0 mm 0 mps 667 mmHg 82%
    01:00 +14°C° 0 mm 0 mps 666 mmHg 83%
    02:00 +13°C° 0 mm 0 mps 666 mmHg 83%
    03:00 +13°C° 0 mm 0 mps 666 mmHg 84%
    04:00 +13°C° 0 mm 0 mps 666 mmHg 84%
    05:00 +16°C° 0 mm 0 mps 667 mmHg 73%
    06:00 +19°C° 0 mm 0 mps 668 mmHg 62%
    07:00 +22°C° 0 mm 0 mps 669 mmHg 51%
    08:00 +24°C° 0 mm 0 mps 669 mmHg 44%
    09:00 +28°C° 0 mm 1 mps 670 mmHg 38%
    10:00 +30°C° 0 mm 1 mps 670 mmHg 31%
    11:00 +30°C° 0 mm 1 mps 670 mmHg 31%
    12:00 +31°C° 0 mm 2 mps 670 mmHg 30%
    13:00 +31°C° 0 mm 2 mps 669 mmHg 29%
    14:00 +31°C° 0 mm 2 mps 669 mmHg 31%
    15:00 +30°C° 0 mm 2 mps 669 mmHg 34%
    16:00 +29°C° 0 mm 2 mps 669 mmHg 36%
    17:00 +27°C° 0 mm 2 mps 668 mmHg 46%
    18:00 +24°C° 0 mm 2 mps 667 mmHg 56%
    19:00 +21°C° 0 mm 1 mps 667 mmHg 65%
    20:00 +20°C° 0 mm 1 mps 667 mmHg 69%
    21:00 +19°C° 0 mm 1 mps 667 mmHg 73%
    22:00 +15°C° 0 mm 0 mps 666 mmHg 77%
    23:00 +15°C° 0 mm 0 mps 666 mmHg 79%

    29 June, Thursday

    Time Temperature Precipitation Wind Pressure Humidity
    00:00 +14°C° 0 mm 0 mps 666 mmHg 80%
    01:00 +14°C° 0 mm 0 mps 666 mmHg 82%
    02:00 +14°C° 0 mm 0 mps 665 mmHg 82%
    03:00 +13°C° 0 mm 0 mps 665 mmHg 82%
    04:00 +13°C° 0 mm 0 mps 665 mmHg 82%
    05:00 +16°C° 0 mm 0 mps 666 mmHg 71%
    06:00 +20°C° 0 mm 0 mps 667 mmHg 60%
    07:00 +23°C° 0 mm 0 mps 668 mmHg 49%
    08:00 +27°C° 0 mm 1 mps 669 mmHg 43%
    09:00 +28°C° 0 mm 1 mps 669 mmHg 36%
    10:00 +30°C° 0 mm 1 mps 670 mmHg 30%
    11:00 +31°C° 0 mm 1 mps 670 mmHg 28%
    12:00 +31°C° 0 mm 2 mps 670 mmHg 27%
    13:00 +32°C° 0 mm 2 mps 670 mmHg 25%
    14:00 +32°C° 0 mm 2 mps 669 mmHg 27%
    15:00 +31°C° 0 mm 2 mps 669 mmHg 29%
    16:00 +31°C° 0 mm 2 mps 669 mmHg 31%
    17:00 +28°C° 0 mm 2 mps 668 mmHg 42%
    18:00 +25°C° 0 mm 1 mps 667 mmHg 52%
    19:00 +21°C° 0 mm 1 mps 667 mmHg 62%
    20:00 +20°C° 0 mm 1 mps 667 mmHg 65%
    21:00 +19°C° 0 mm 1 mps 667 mmHg 68%
    22:00 +18°C° 0 mm 1 mps 667 mmHg 72%
    23:00 +18°C° 0 mm 1 mps 667 mmHg 72%
    Show more